| time (UTC) | temp F | wind direction | speed MPH | gust MPH | rain 1hr in | rain 24hr in | rain mn in | humidity % | barometer mb |
| 20260503044936 | 51 | 248 | 0.0 | 0.0 | 0.00 | 0.00 | 0.00 | 69 | 1018.7 |
| 20260503044433 | 51 | 248 | 0.0 | 0.0 | 0.00 | 0.00 | 0.00 | 68 | 1018.7 |
| 20260503043931 | 52 | 248 | 0.0 | 0.0 | 0.00 | 0.00 | 0.00 | 67 | 1018.6 |
| 20260503043427 | 52 | 248 | 0.0 | 0.0 | 0.00 | 0.00 | 0.00 | 66 | 1018.7 |
| 20260503042924 | 53 | 248 | 0.0 | 1.0 | 0.00 | 0.00 | 0.00 | 64 | 1018.8 |
| 20260503042421 | 53 | 255 | 1.0 | 2.0 | 0.00 | 0.00 | 0.00 | 64 | 1018.7 |
| 20260503041917 | 53 | 253 | 0.0 | 3.0 | 0.00 | 0.00 | 0.00 | 63 | 1018.7 |
| 20260503041414 | 54 | 183 | 0.0 | 3.0 | 0.00 | 0.00 | 0.00 | 62 | 1018.9 |
| 20260503040911 | 54 | 213 | 2.0 | 3.0 | 0.00 | 0.00 | 0.00 | 61 | 1018.5 |
| 20260503040409 | 54 | 256 | 4.0 | 4.0 | 0.00 | 0.00 | 0.00 | 61 | 1018.5 |
| 20260503035906 | 54 | 242 | 1.0 | 3.0 | 0.00 | 0.00 | 0.00 | 62 | 1018.6 |
| 20260503035402 | 54 | 202 | 3.0 | 4.0 | 0.00 | 0.00 | 0.00 | 61 | 1018.3 |
| 20260503034900 | 54 | 236 | 1.0 | 2.0 | 0.00 | 0.00 | 0.00 | 62 | 1018.5 |
| 20260503034357 | 53 | 238 | 2.0 | 3.0 | 0.00 | 0.00 | 0.00 | 62 | 1018.3 |
| 20260503033854 | 53 | 189 | 0.0 | 0.0 | 0.00 | 0.00 | 0.00 | 67 | 1018.4 |
| 20260503033352 | 53 | 189 | 0.0 | 0.0 | 0.00 | 0.00 | 0.00 | 66 | 1018.2 |
| 20260503032849 | 53 | 189 | 0.0 | 0.0 | 0.00 | 0.00 | 0.00 | 65 | 1018.4 |
| 20260503032348 | 53 | 189 | 0.0 | 0.0 | 0.00 | 0.00 | 0.00 | 66 | 1018.3 |
| 20260503031845 | 52 | 189 | 0.0 | 0.0 | 0.00 | 0.00 | 0.00 | 65 | 1018.2 |
| 20260503031343 | 52 | 189 | 0.0 | 0.0 | 0.00 | 0.00 | 0.00 | 72 | 1018.2 |
| 20260503030839 | 52 | 189 | 0.0 | 0.0 | 0.00 | 0.00 | 0.00 | 70 | 1018.3 |
| 20260503030336 | 52 | 189 | 0.0 | 0.0 | 0.00 | 0.00 | 0.00 | 65 | 1018.1 |
| 20260503025832 | 52 | 189 | 0.0 | 0.0 | 0.00 | 0.00 | 0.00 | 67 | 1018.3 |
| 20260503025330 | 52 | 189 | 0.0 | 0.0 | 0.00 | 0.00 | 0.00 | 68 | 1018.1 |
| 20260503024827 | 52 | 189 | 0.0 | 0.0 | 0.00 | 0.00 | 0.00 | 65 | 1018.0 |
| 20260503024323 | 52 | 189 | 0.0 | 0.0 | 0.00 | 0.00 | 0.00 | 70 | 1018.1 |
| 20260503023820 | 52 | 189 | 0.0 | 0.0 | 0.00 | 0.00 | 0.00 | 69 | 1017.9 |
| 20260503023318 | 52 | 189 | 0.0 | 0.0 | 0.00 | 0.00 | 0.00 | 69 | 1017.7 |
| 20260503022814 | 52 | 189 | 0.0 | 0.0 | 0.00 | 0.00 | 0.00 | 66 | 1017.6 |
| 20260503022309 | 52 | 189 | 0.0 | 0.0 | 0.00 | 0.00 | 0.00 | 67 | 1017.4 |
| 20260503021806 | 53 | 189 | 0.0 | 0.0 | 0.00 | 0.00 | 0.00 | 70 | 1017.5 |
| 20260503021302 | 53 | 189 | 0.0 | 0.0 | 0.00 | 0.00 | 0.00 | 62 | 1017.2 |
| 20260503020800 | 53 | 189 | 1.0 | 1.0 | 0.00 | 0.00 | 0.00 | 60 | 1017.4 |
| 20260503020257 | 53 | 237 | 0.0 | 0.0 | 0.00 | 0.00 | 0.00 | 67 | 1017.1 |
| 20260503015753 | 53 | 237 | 0.0 | 0.0 | 0.00 | 0.00 | 0.00 | 61 | 1017.0 |
| 20260503015250 | 53 | 237 | 0.0 | 0.0 | 0.00 | 0.00 | 0.00 | 65 | 1017.0 |
| 20260503014746 | 53 | 237 | 0.0 | 0.0 | 0.00 | 0.00 | 0.00 | 66 | 1016.8 |
| 20260503014244 | 53 | 237 | 0.0 | 0.0 | 0.00 | 0.00 | 0.00 | 68 | 1016.8 |
| 20260503013741 | 53 | 237 | 0.0 | 0.0 | 0.00 | 0.00 | 0.00 | 68 | 1016.9 |
| 20260503013239 | 53 | 237 | 0.0 | 0.0 | 0.00 | 0.00 | 0.00 | 67 | 1016.8 |
| 20260503012736 | 54 | 237 | 0.0 | 0.0 | 0.00 | 0.00 | 0.00 | 64 | 1016.6 |
| 20260503012233 | 54 | 237 | 0.0 | 0.0 | 0.00 | 0.00 | 0.00 | 64 | 1016.6 |
| 20260503011729 | 54 | 237 | 0.0 | 0.0 | 0.00 | 0.00 | 0.00 | 61 | 1016.5 |
| 20260503011227 | 54 | 237 | 0.0 | 0.0 | 0.00 | 0.00 | 0.00 | 60 | 1016.5 |
| 20260503010722 | 55 | 237 | 0.0 | 0.0 | 0.00 | 0.00 | 0.00 | 60 | 1016.4 |
| 20260503010220 | 55 | 237 | 0.0 | 0.0 | 0.00 | 0.00 | 0.00 | 59 | 1016.4 |
| 20260503005717 | 56 | 237 | 0.0 | 0.0 | 0.00 | 0.00 | 0.00 | 57 | 1016.6 |
| 20260503005214 | 56 | 237 | 0.0 | 0.0 | 0.00 | 0.00 | 0.00 | 56 | 1016.3 |
| 20260503004710 | 57 | 237 | 0.0 | 0.0 | 0.00 | 0.00 | 0.00 | 54 | 1016.3 |
| 20260503004209 | 58 | 217 | 0.0 | 0.0 | 0.00 | 0.00 | 0.00 | 51 | 1016.4 |
| 20260503003706 | 59 | 237 | 0.0 | 0.0 | 0.00 | 0.00 | 0.00 | 49 | 1016.3 |
| 20260503003202 | 59 | 237 | 0.0 | 1.0 | 0.00 | 0.00 | 0.00 | 48 | 1016.3 |
| 20260503002659 | 59 | 220 | 0.0 | 1.0 | 0.00 | 0.00 | 0.00 | 47 | 1016.2 |
| 20260503002156 | 60 | 242 | 0.0 | 0.0 | 0.00 | 0.00 | 0.00 | 47 | 1015.9 |
| 20260503001652 | 60 | 221 | 0.0 | 0.0 | 0.00 | 0.00 | 0.00 | 46 | 1016.1 |
| 20260503001149 | 61 | 242 | 0.0 | 0.0 | 0.00 | 0.00 | 0.00 | 45 | 1016.0 |
| 20260503000647 | 62 | 242 | 0.0 | 0.0 | 0.00 | 0.00 | 0.00 | 43 | 1015.9 |
| 20260503000143 | 62 | 221 | 0.0 | 0.0 | 0.00 | 0.00 | 0.00 | 42 | 1015.8 |
| 20260502235640 | 63 | 252 | 0.0 | 0.0 | 0.00 | 0.00 | 0.00 | 41 | 1015.7 |
| 20260502235138 | 63 | 252 | 1.0 | 2.0 | 0.00 | 0.00 | 0.00 | 39 | 1015.8 |
| 20260502234633 | 64 | 255 | 2.0 | 3.0 | 0.00 | 0.00 | 0.00 | 39 | 1015.6 |
| 20260502234131 | 64 | 197 | 0.0 | 4.0 | 0.00 | 0.00 | 0.00 | 38 | 1015.6 |
| 20260502233627 | 65 | 239 | 2.0 | 3.0 | 0.00 | 0.00 | 0.00 | 37 | 1015.5 |
| 20260502233124 | 66 | 183 | 2.0 | 4.0 | 0.00 | 0.00 | 0.00 | 36 | 1015.6 |
| 20260502232620 | 66 | 213 | 3.0 | 7.0 | 0.00 | 0.00 | 0.00 | 35 | 1015.7 |
| 20260502232118 | 66 | 200 | 4.0 | 7.0 | 0.00 | 0.00 | 0.00 | 35 | 1015.5 |
| 20260502231614 | 66 | 212 | 1.0 | 7.0 | 0.00 | 0.00 | 0.00 | 35 | 1015.5 |
| 20260502231112 | 66 | 190 | 4.0 | 6.0 | 0.00 | 0.00 | 0.00 | 36 | 1015.5 |
| 20260502230610 | 66 | 171 | 3.0 | 3.0 | 0.00 | 0.00 | 0.00 | 34 | 1015.5 |
| 20260502230108 | 66 | 253 | 2.0 | 7.0 | 0.00 | 0.00 | 0.00 | 35 | 1015.7 |
| 20260502225603 | 66 | 140 | 2.0 | 10.0 | 0.00 | 0.00 | 0.00 | 35 | 1015.6 |
| 20260502225101 | 67 | 282 | 4.0 | 7.0 | 0.00 | 0.00 | 0.00 | 35 | 1015.5 |
| 20260502224556 | 66 | 257 | 1.0 | 4.0 | 0.00 | 0.00 | 0.00 | 37 | 1015.6 |
| 20260502224054 | 65 | 289 | 2.0 | 2.0 | 0.00 | 0.00 | 0.00 | 38 | 1015.5 |
| 20260502223551 | 66 | 300 | 3.0 | 6.0 | 0.00 | 0.00 | 0.00 | 36 | 1015.5 |
| 20260502223050 | 68 | 210 | 3.0 | 8.0 | 0.00 | 0.00 | 0.00 | 34 | 1015.5 |
| 20260502222547 | 66 | 219 | 1.0 | 6.0 | 0.00 | 0.00 | 0.00 | 35 | 1015.5 |
| 20260502222043 | 66 | 231 | 5.0 | 10.0 | 0.00 | 0.00 | 0.00 | 35 | 1015.5 |
| 20260502221539 | 66 | 310 | 4.0 | 4.0 | 0.00 | 0.00 | 0.00 | 35 | 1015.4 |
| 20260502221036 | 67 | 262 | 6.0 | 11.0 | 0.00 | 0.00 | 0.00 | 34 | 1015.5 |
| 20260502220532 | 67 | 277 | 4.0 | 6.0 | 0.00 | 0.00 | 0.00 | 34 | 1015.3 |
| 20260502220029 | 67 | 250 | 3.0 | 4.0 | 0.00 | 0.00 | 0.00 | 36 | 1015.3 |
| 20260502215526 | 66 | 314 | 1.0 | 3.0 | 0.00 | 0.00 | 0.00 | 38 | 1015.3 |
| 20260502215023 | 66 | 317 | 2.0 | 3.0 | 0.00 | 0.00 | 0.00 | 40 | 1015.2 |
| 20260502214520 | 66 | 284 | 4.0 | 8.0 | 0.00 | 0.00 | 0.00 | 36 | 1015.3 |
| 20260502214017 | 65 | 293 | 4.0 | 7.0 | 0.00 | 0.00 | 0.00 | 37 | 1015.2 |
| 20260502213514 | 67 | 267 | 4.0 | 6.0 | 0.00 | 0.00 | 0.00 | 37 | 1015.2 |
| 20260502213012 | 67 | 234 | 2.0 | 10.0 | 0.00 | 0.00 | 0.00 | 38 | 1015.2 |
| 20260502212510 | 66 | 305 | 4.0 | 9.0 | 0.00 | 0.00 | 0.00 | 36 | 1015.2 |
| 20260502212007 | 66 | 254 | 5.0 | 11.0 | 0.00 | 0.00 | 0.00 | 38 | 1015.1 |
| 20260502211503 | 66 | 233 | 5.0 | 8.0 | 0.00 | 0.00 | 0.00 | 36 | 1015.1 |
| 20260502211001 | 66 | 258 | 4.0 | 8.0 | 0.00 | 0.00 | 0.00 | 35 | 1014.9 |
| 20260502210457 | 67 | 308 | 4.0 | 7.0 | 0.00 | 0.00 | 0.00 | 37 | 1014.7 |
| 20260502205954 | 66 | 285 | 4.0 | 11.0 | 0.00 | 0.00 | 0.00 | 35 | 1015.1 |
| 20260502205450 | 67 | 161 | 5.0 | 13.0 | 0.00 | 0.00 | 0.00 | 35 | 1014.9 |
| 20260502204948 | 68 | 134 | 5.0 | 7.0 | 0.00 | 0.00 | 0.00 | 38 | 1014.7 |
| 20260502204444 | 68 | 296 | 1.0 | 4.0 | 0.00 | 0.00 | 0.00 | 38 | 1014.9 |
| 20260502203943 | 67 | 258 | 3.0 | 7.0 | 0.00 | 0.00 | 0.00 | 37 | 1014.8 |
| 20260502203439 | 67 | 333 | 1.0 | 9.0 | 0.00 | 0.00 | 0.00 | 36 | 1015.2 |
| 20260502202936 | 67 | 249 | 4.0 | 6.0 | 0.00 | 0.00 | 0.00 | 37 | 1015.0 |
| 20260502202433 | 66 | 211 | 4.0 | 11.0 | 0.00 | 0.00 | 0.00 | 38 | 1015.1 |
| 20260502201931 | 66 | 224 | 1.0 | 2.0 | 0.00 | 0.00 | 0.00 | 37 | 1015.3 |
| 20260502201427 | 66 | 249 | 4.0 | 9.0 | 0.00 | 0.00 | 0.00 | 37 | 1015.0 |
| 20260502200924 | 66 | 271 | 4.0 | 8.0 | 0.00 | 0.00 | 0.00 | 37 | 1014.9 |
| 20260502200419 | 66 | 353 | 1.0 | 11.0 | 0.00 | 0.00 | 0.00 | 38 | 1015.0 |
| 20260502195917 | 65 | 212 | 4.0 | 6.0 | 0.00 | 0.00 | 0.00 | 37 | 1015.1 |
| 20260502195414 | 65 | 242 | 1.0 | 14.0 | 0.00 | 0.00 | 0.00 | 37 | 1014.9 |
| 20260502194910 | 65 | 333 | 0.0 | 9.0 | 0.00 | 0.00 | 0.00 | 36 | 1015.4 |
| 20260502194407 | 64 | 214 | 1.0 | 6.0 | 0.00 | 0.00 | 0.00 | 35 | 1015.1 |
| 20260502193903 | 65 | 192 | 9.0 | 11.0 | 0.00 | 0.00 | 0.00 | 34 | 1015.5 |
| 20260502193400 | 66 | 237 | 3.0 | 6.0 | 0.00 | 0.00 | 0.00 | 37 | 1014.8 |
| 20260502192855 | 66 | 148 | 1.0 | 8.0 | 0.00 | 0.00 | 0.00 | 35 | 1015.0 |
| 20260502192353 | 66 | 199 | 3.0 | 13.0 | 0.00 | 0.00 | 0.00 | 33 | 1015.0 |
| 20260502191850 | 65 | 131 | 3.0 | 8.0 | 0.00 | 0.00 | 0.00 | 37 | 1015.1 |
| 20260502191348 | 66 | 150 | 4.0 | 13.0 | 0.00 | 0.00 | 0.00 | 34 | 1015.1 |
| 20260502190845 | 66 | 277 | 6.0 | 8.0 | 0.00 | 0.00 | 0.00 | 35 | 1015.0 |
| 20260502190342 | 66 | 256 | 2.0 | 4.0 | 0.00 | 0.00 | 0.00 | 39 | 1015.0 |
| 20260502185838 | 65 | 228 | 6.0 | 9.0 | 0.00 | 0.00 | 0.00 | 38 | 1014.8 |
| 20260502185334 | 66 | 299 | 3.0 | 9.0 | 0.00 | 0.00 | 0.00 | 37 | 1015.2 |
| 20260502184831 | 66 | 250 | 3.0 | 6.0 | 0.00 | 0.00 | 0.00 | 36 | 1015.0 |
| 20260502184326 | 66 | 223 | 2.0 | 9.0 | 0.00 | 0.00 | 0.00 | 37 | 1014.8 |
| 20260502183824 | 66 | 345 | 3.0 | 9.0 | 0.00 | 0.00 | 0.00 | 38 | 1015.1 |
| 20260502183320 | 66 | 5 | 2.0 | 4.0 | 0.00 | 0.00 | 0.00 | 35 | 1014.8 |
| 20260502182815 | 66 | 215 | 2.0 | 8.0 | 0.00 | 0.00 | 0.00 | 38 | 1015.1 |
| 20260502182310 | 65 | 198 | 1.0 | 7.0 | 0.00 | 0.00 | 0.00 | 42 | 1014.9 |
| 20260502181807 | 65 | 344 | 2.0 | 8.0 | 0.00 | 0.00 | 0.00 | 38 | 1015.0 |
| 20260502181306 | 65 | 245 | 6.0 | 8.0 | 0.00 | 0.00 | 0.00 | 41 | 1015.0 |
| 20260502180803 | 64 | 277 | 3.0 | 7.0 | 0.00 | 0.00 | 0.00 | 41 | 1015.2 |
| 20260502180300 | 64 | 231 | 4.0 | 8.0 | 0.00 | 0.00 | 0.00 | 39 | 1015.1 |
| 20260502170214 | 62 | 255 | 6.0 | 10.0 | 0.00 | 0.00 | 0.00 | 50 | 1015.2 |
| 20260502164201 | 61 | 180 | 3.0 | 14.0 | 0.00 | 0.00 | 0.00 | 53 | 1015.5 |
| 20260502163656 | 61 | 272 | 8.0 | 11.0 | 0.00 | 0.00 | 0.00 | 51 | 1015.3 |
| 20260502163153 | 61 | 285 | 4.0 | 11.0 | 0.00 | 0.00 | 0.00 | 50 | 1015.5 |
| 20260502162649 | 62 | 214 | 3.0 | 13.0 | 0.00 | 0.00 | 0.00 | 51 | 1015.3 |
| 20260502162147 | 62 | 261 | 0.0 | 8.0 | 0.00 | 0.00 | 0.00 | 51 | 1015.3 |
| 20260502161644 | 62 | 342 | 2.0 | 7.0 | 0.00 | 0.00 | 0.00 | 53 | 1015.5 |
| 20260502161140 | 61 | 240 | 3.0 | 7.0 | 0.00 | 0.00 | 0.00 | 50 | 1015.4 |
| 20260502160638 | 61 | 277 | 8.0 | 13.0 | 0.00 | 0.00 | 0.00 | 49 | 1015.4 |
| 20260502160137 | 61 | 213 | 4.0 | 9.0 | 0.00 | 0.00 | 0.00 | 49 | 1015.5 |
| 20260502152051 | 60 | 213 | 2.0 | 8.0 | 0.00 | 0.00 | 0.00 | 55 | 1015.2 |
| 20260502151549 | 60 | 215 | 3.0 | 6.0 | 0.00 | 0.00 | 0.00 | 55 | 1015.4 |
| 20260502151046 | 59 | 1 | 2.0 | 8.0 | 0.00 | 0.00 | 0.00 | 58 | 1015.2 |
| 20260502150544 | 59 | 274 | 3.0 | 8.0 | 0.00 | 0.00 | 0.00 | 57 | 1015.1 |
| 20260502130428 | 54 | 224 | 4.0 | 6.0 | 0.00 | 0.00 | 0.00 | 69 | 1014.4 |
| 20260502123410 | 53 | 321 | 0.0 | 1.0 | 0.00 | 0.00 | 0.00 | 69 | 1014.4 |
| 20260502122908 | 53 | 333 | 2.0 | 3.0 | 0.00 | 0.00 | 0.00 | 69 | 1014.2 |
| 20260502122404 | 53 | 256 | 0.0 | 3.0 | 0.00 | 0.00 | 0.00 | 69 | 1014.3 |
| 20260502121902 | 53 | 192 | 0.0 | 6.0 | 0.00 | 0.00 | 0.00 | 68 | 1014.4 |
| 20260502121359 | 53 | 65 | 0.0 | 1.0 | 0.00 | 0.00 | 0.00 | 69 | 1014.3 |
| 20260502120856 | 53 | 316 | 0.0 | 4.0 | 0.00 | 0.00 | 0.00 | 68 | 1014.4 |
| 20260502120352 | 53 | 299 | 1.0 | 6.0 | 0.00 | 0.00 | 0.00 | 68 | 1014.1 |
| 20260502115850 | 53 | 222 | 1.0 | 7.0 | 0.00 | 0.00 | 0.00 | 68 | 1014.2 |
| 20260502115347 | 53 | 246 | 3.0 | 4.0 | 0.00 | 0.00 | 0.00 | 68 | 1013.7 |
| 20260502114843 | 53 | 249 | 3.0 | 4.0 | 0.00 | 0.00 | 0.00 | 67 | 1013.8 |
| 20260502114340 | 53 | 202 | 1.0 | 2.0 | 0.00 | 0.00 | 0.00 | 67 | 1014.1 |
| 20260502113837 | 53 | 22 | 1.0 | 6.0 | 0.00 | 0.00 | 0.00 | 67 | 1014.1 |
| 20260502113334 | 53 | 336 | 1.0 | 2.0 | 0.00 | 0.00 | 0.00 | 67 | 1014.4 |
| 20260502112833 | 53 | 282 | 2.0 | 4.0 | 0.00 | 0.00 | 0.00 | 66 | 1014.3 |
| 20260502112330 | 53 | 265 | 4.0 | 6.0 | 0.00 | 0.00 | 0.00 | 65 | 1014.2 |
| 20260502111827 | 53 | 242 | 3.0 | 9.0 | 0.00 | 0.00 | 0.00 | 66 | 1014.1 |
| 20260502111325 | 53 | 246 | 2.0 | 4.0 | 0.00 | 0.00 | 0.00 | 66 | 1014.1 |
| 20260502110822 | 53 | 305 | 0.0 | 3.0 | 0.00 | 0.00 | 0.00 | 66 | 1014.1 |
| 20260502110320 | 53 | 244 | 1.0 | 3.0 | 0.00 | 0.00 | 0.00 | 65 | 1014.1 |
| 20260502105817 | 53 | 147 | 0.0 | 6.0 | 0.00 | 0.00 | 0.00 | 65 | 1014.0 |
| 20260502105314 | 53 | 251 | 1.0 | 3.0 | 0.00 | 0.00 | 0.00 | 65 | 1014.0 |
| 20260502104812 | 53 | 239 | 2.0 | 4.0 | 0.00 | 0.00 | 0.00 | 65 | 1013.8 |
| 20260502104308 | 53 | 239 | 1.0 | 2.0 | 0.00 | 0.00 | 0.00 | 64 | 1013.5 |
| 20260502103806 | 53 | 236 | 3.0 | 4.0 | 0.00 | 0.00 | 0.00 | 64 | 1013.4 |
| 20260502103303 | 53 | 244 | 3.0 | 4.0 | 0.00 | 0.00 | 0.00 | 63 | 1013.5 |
| 20260502102800 | 53 | 214 | 3.0 | 8.0 | 0.00 | 0.00 | 0.00 | 63 | 1013.5 |
| 20260502102256 | 54 | 201 | 0.0 | 8.0 | 0.00 | 0.00 | 0.00 | 62 | 1013.8 |
| 20260502101755 | 54 | 257 | 1.0 | 2.0 | 0.00 | 0.00 | 0.00 | 63 | 1013.7 |
| 20260502101252 | 54 | 222 | 1.0 | 3.0 | 0.00 | 0.00 | 0.00 | 63 | 1013.8 |
| 20260502100750 | 54 | 306 | 2.0 | 3.0 | 0.00 | 0.00 | 0.00 | 62 | 1013.7 |
| 20260502100249 | 54 | 304 | 0.0 | 4.0 | 0.00 | 0.00 | 0.00 | 62 | 1013.4 |
| 20260502091223 | 55 | 184 | 3.0 | 4.0 | 0.00 | 0.00 | 0.00 | 59 | 1013.5 |
| 20260502090720 | 55 | 315 | 1.0 | 7.0 | 0.00 | 0.00 | 0.00 | 58 | 1013.6 |
| 20260502090217 | 55 | 205 | 2.0 | 3.0 | 0.00 | 0.00 | 0.00 | 58 | 1013.6 |
| 20260502071114 | 57 | 221 | 5.0 | 10.0 | 0.00 | 0.00 | 0.00 | 57 | 1013.9 |
| 20260502070611 | 57 | 189 | 3.0 | 7.0 | 0.00 | 0.00 | 0.00 | 58 | 1014.0 |
| 20260502070109 | 57 | 308 | 6.0 | 9.0 | 0.00 | 0.00 | 0.00 | 58 | 1014.4 |
| 20260502065607 | 57 | 211 | 3.0 | 9.0 | 0.00 | 0.00 | 0.00 | 58 | 1014.4 |
| 20260502065104 | 57 | 248 | 2.0 | 4.0 | 0.00 | 0.00 | 0.00 | 60 | 1014.4 |
| 20260502064603 | 57 | 271 | 4.0 | 7.0 | 0.00 | 0.00 | 0.00 | 60 | 1014.5 |
| 20260502064100 | 57 | 267 | 1.0 | 7.0 | 0.00 | 0.00 | 0.00 | 61 | 1014.5 |
| 20260502063557 | 58 | 305 | 2.0 | 4.0 | 0.00 | 0.00 | 0.00 | 61 | 1014.7 |
| 20260502063055 | 58 | 255 | 2.0 | 4.0 | 0.00 | 0.00 | 0.00 | 62 | 1014.4 |
| 20260502062552 | 58 | 238 | 3.0 | 6.0 | 0.00 | 0.00 | 0.00 | 62 | 1014.4 |
| 20260502062050 | 58 | 320 | 2.0 | 4.0 | 0.00 | 0.00 | 0.00 | 63 | 1014.4 |
| 20260502061548 | 58 | 339 | 0.0 | 4.0 | 0.00 | 0.00 | 0.00 | 63 | 1014.6 |
| 20260502061045 | 58 | 189 | 1.0 | 6.0 | 0.00 | 0.00 | 0.00 | 63 | 1014.7 |
| 20260502060540 | 58 | 319 | 2.0 | 6.0 | 0.00 | 0.00 | 0.00 | 65 | 1014.5 |
| 20260502060037 | 58 | 219 | 4.0 | 9.0 | 0.00 | 0.00 | 0.00 | 65 | 1014.7 |
| 20260502055534 | 58 | 259 | 1.0 | 7.0 | 0.00 | 0.00 | 0.00 | 66 | 1014.9 |
| 20260502055033 | 58 | 233 | 0.0 | 3.0 | 0.00 | 0.00 | 0.00 | 67 | 1014.7 |
| 20260502054531 | 58 | 189 | 2.0 | 6.0 | 0.00 | 0.00 | 0.00 | 67 | 1014.7 |
| 20260502054028 | 58 | 269 | 2.0 | 3.0 | 0.00 | 0.00 | 0.00 | 68 | 1014.5 |
| 20260502053525 | 58 | 246 | 2.0 | 6.0 | 0.00 | 0.00 | 0.00 | 68 | 1014.6 |
| 20260502053023 | 58 | 357 | 0.0 | 6.0 | 0.00 | 0.00 | 0.00 | 69 | 1014.3 |
| 20260502052521 | 58 | 144 | 0.0 | 9.0 | 0.00 | 0.00 | 0.00 | 69 | 1014.4 |
| 20260502052019 | 58 | 124 | 2.0 | 6.0 | 0.00 | 0.00 | 0.00 | 71 | 1014.4 |
| 20260502051516 | 58 | 316 | 2.0 | 9.0 | 0.00 | 0.00 | 0.00 | 70 | 1014.5 |
| 20260502051014 | 58 | 259 | 2.0 | 3.0 | 0.00 | 0.00 | 0.00 | 73 | 1014.6 |
| 20260502050510 | 58 | 131 | 3.0 | 8.0 | 0.00 | 0.00 | 0.00 | 74 | 1014.6 |
| 20260502050007 | 58 | 278 | 2.0 | 6.0 | 0.00 | 0.00 | 0.00 | 74 | 1014.4 |
| 20260502045504 | 58 | 248 | 2.0 | 2.0 | 0.00 | 0.00 | 0.00 | 76 | 1014.3 |